Flag for Germany Weather past 2 weeks in Plettenberg, North Rhine-Westphalia, Germany

Now
61 °F

Passing clouds.


Feels Like: 61 °F
Forecast: 41 / 64 °F
Wind: 9 mph from West

Location: Dortmund / Wickede

Current Time: Aug 20, 2014 at 12:51:02 PM

Latest Report: Aug 20, 2014 at 12:20 PM


Visibility: N/A

Pressure: 30.01 "Hg

Humidity: 59%

Dew point: 46 °F

Location of PlettenbergLocation

Historic Weather in Plettenberg — Graph

°F

Plettenberg temperature yesterday

Maximum temperature yesterday: 59 °F (at 4:50 PM)
Minimum temperature yesterday: 50 °F (at 9:20 PM)
Average temperature yesterday: 54 °F

Past Weeks' High & Low Weather Summary

 TemperatureHumidityPressure
High79 °F (Aug 8, 1:20 PM)94% (Aug 15, 7:20 AM)30.12 "Hg (Aug 15, 7:20 AM)
Low48 °F (Aug 20, 5:20 AM)36% (Aug 5, 5:50 PM)29.59 "Hg (Aug 10, 7:20 PM)
Average63 °F69%29.87 "Hg
* Reported Aug 5 11:20 AM — Aug 20 11:50 AM, Plettenberg, Weather by CustomWeather, © 2014

Note: Actual official high and low records may vary slightly from our data, if they occured in-between our weather recording intervals... More about our weather records

Advertising

Plettenberg weather history for previous 24 hours

 ConditionsComfort  
Time TempWeatherWind HumidityBarometerVisibility
11:50 AM
Aug 20
59 °FScattered clouds.8 mph63%30.01 "HgN/A
11:20 AM59 °FScattered clouds.9 mph63%30.01 "HgN/A
10:50 AM57 °FPassing clouds.13 mph67%30.01 "HgN/A
10:20 AM57 °FSunny.10 mph67%30.01 "Hg10 mi
9:50 AM55 °FSunny.13 mph72%30.01 "Hg10 mi
9:20 AM55 °FSunny.12 mph72%30.01 "Hg10 mi
8:50 AM54 °FSunny.12 mph72%30.01 "Hg10 mi
8:20 AM52 °FSunny.10 mph77%29.98 "Hg10 mi
7:50 AM50 °FSunny.13 mph76%29.98 "Hg10 mi
7:20 AM50 °FClear.12 mph76%29.98 "Hg10 mi
6:50 AM50 °FPassing clouds.10 mph76%29.98 "HgN/A
6:20 AM48 °FScattered showers. Passing clouds.12 mph82%29.98 "HgN/A
5:50 AM48 °FPassing clouds.10 mph82%29.98 "HgN/A
5:20 AM48 °FPassing clouds.9 mph82%29.98 "HgN/A
10:50 PM
Aug 19
50 °FClear.10 mph76%29.95 "Hg10 mi
10:20 PM50 °FClear.10 mph76%29.95 "Hg10 mi
9:50 PM50 °FClear.9 mph82%29.92 "Hg10 mi
9:20 PM50 °FSunny.10 mph82%29.92 "Hg10 mi
8:50 PM52 °FPassing clouds.13 mph77%29.92 "HgN/A
8:20 PM52 °FScattered clouds.12 mph82%29.89 "HgN/A
7:50 PM54 °FSunny.13 mph77%29.89 "Hg10 mi
7:20 PM52 °FSunny.12 mph82%29.89 "Hg10 mi
6:50 PM52 °FPartly sunny.9 mph82%29.86 "HgN/A
6:20 PM52 °FRain. Cloudy.15 mph77%29.86 "Hg5 mi
5:50 PM57 °FPartly sunny.15 mph63%29.83 "HgN/A
5:20 PM59 °FPartly sunny.15 mph63%29.83 "HgN/A
4:50 PM59 °FPartly sunny.17 mph68%29.83 "HgN/A
4:20 PM57 °FPartly sunny.9 mph77%29.83 "HgN/A
3:50 PM57 °FPartly sunny.13 mph77%29.83 "HgN/A
3:20 PM57 °FPartly sunny.12 mph82%29.83 "HgN/A
2:50 PM55 °FSunny.14 mph82%29.83 "Hg10 mi
2:20 PM54 °FSunny.14 mph88%29.83 "Hg10 mi
1:50 PM52 °FSprinkles. Scattered clouds.12 mph88%29.83 "HgN/A
1:20 PM54 °FSprinkles. Partly sunny.16 mph82%29.83 "HgN/A
12:50 PM57 °FScattered showers. Partly sunny.15 mph82%29.80 "HgN/A
12:20 PM57 °FScattered showers. Partly sunny.15 mph82%29.80 "HgN/A
Weather by CustomWeather, © 2014

See weather overviewHow to use our weather pages